When you browse on this site, cookies collect data to enhance your experience and personalize the content and advertising you see.
Visit our Privacy Policy to learn more. By continuing to use the site, you agree to this use of cookies and data.
  • In Belgium
  • List of Countries
  • For 7 days
  • Water Temperature
  • Weather Map
  • Weather Widgets
  • user-avatar
    Login

    Hourly Weather Shkoder

    Today, 18 September, Wednesday

    Time Temperature Precipitation Wind Pressure Humidity
    00:00 +20°C° 0 mm 1 mps 739 mmHg 76%
    01:00 +20°C° 0 mm 1 mps 739 mmHg 79%
    02:00 +19°C° 0 mm 1 mps 739 mmHg 79%
    03:00 +19°C° 0 mm 1 mps 739 mmHg 79%
    04:00 +19°C° 0 mm 1 mps 739 mmHg 80%
    05:00 +20°C° 0 mm 1 mps 739 mmHg 74%
    06:00 +21°C° 0 mm 1 mps 740 mmHg 68%
    07:00 +23°C° 0 mm 1 mps 740 mmHg 61%
    08:00 +25°C° 0 mm 1 mps 740 mmHg 55%
    09:00 +27°C° 0 mm 1 mps 740 mmHg 49%
    10:00 +28°C° 0 mm 1 mps 740 mmHg 43%
    11:00 +29°C° 0 mm 2 mps 740 mmHg 42%
    12:00 +29°C° 0 mm 2 mps 741 mmHg 40%
    13:00 +30°C° 0 mm 3 mps 741 mmHg 39%
    14:00 +29°C° 0 mm 3 mps 740 mmHg 42%
    15:00 +28°C° 0 mm 2 mps 740 mmHg 46%
    16:00 +28°C° 0 mm 2 mps 740 mmHg 49%
    17:00 +26°C° 0 mm 2 mps 740 mmHg 54%
    18:00 +24°C° 0 mm 2 mps 741 mmHg 59%
    19:00 +20°C° 0 mm 2 mps 741 mmHg 63%
    20:00 +20°C° 0 mm 3 mps 741 mmHg 63%
    21:00 +19°C° 0 mm 3 mps 741 mmHg 62%
    22:00 +19°C° 0 mm 3 mps 741 mmHg 62%
    23:00 +18°C° 0 mm 3 mps 741 mmHg 62%

    Tomorrow, 19 September, Thursday

    Time Temperature Precipitation Wind Pressure Humidity
    00:00 +18°C° 0 mm 3 mps 741 mmHg 62%
    01:00 +18°C° 0 mm 3 mps 741 mmHg 62%
    02:00 +17°C° 0 mm 3 mps 741 mmHg 63%
    03:00 +17°C° 0 mm 3 mps 741 mmHg 65%
    04:00 +17°C° 0 mm 3 mps 740 mmHg 67%
    05:00 +17°C° 0 mm 3 mps 740 mmHg 66%
    06:00 +18°C° 0 mm 3 mps 740 mmHg 64%
    07:00 +19°C° 0 mm 3 mps 740 mmHg 63%
    08:00 +20°C° 0.2 mm 3 mps 741 mmHg 60%
    09:00 +21°C° 0.2 mm 2 mps 741 mmHg 57%
    10:00 +23°C° 0.2 mm 2 mps 741 mmHg 54%
    11:00 +21°C° 0.7 mm 2 mps 741 mmHg 61%
    12:00 +20°C° 0.7 mm 2 mps 741 mmHg 69%
    13:00 +19°C° 0.7 mm 2 mps 741 mmHg 76%
    14:00 +19°C° 0.1 mm 2 mps 741 mmHg 74%
    15:00 +19°C° 0.1 mm 3 mps 741 mmHg 72%
    16:00 +20°C° 0.1 mm 3 mps 741 mmHg 70%
    17:00 +18°C° 0 mm 3 mps 741 mmHg 72%
    18:00 +17°C° 0 mm 3 mps 742 mmHg 74%
    19:00 +15°C° 0 mm 4 mps 742 mmHg 76%
    20:00 +14°C° 0 mm 4 mps 742 mmHg 76%
    21:00 +14°C° 0 mm 4 mps 743 mmHg 75%
    22:00 +13°C° 0 mm 4 mps 743 mmHg 75%
    23:00 +13°C° 0 mm 4 mps 743 mmHg 75%

    Day after tomorrow, 20 September, Friday

    Time Temperature Precipitation Wind Pressure Humidity
    00:00 +13°C° 0 mm 4 mps 743 mmHg 75%
    01:00 +12°C° 0 mm 4 mps 743 mmHg 75%
    02:00 +12°C° 0 mm 4 mps 743 mmHg 73%
    03:00 +12°C° 0 mm 4 mps 743 mmHg 72%
    04:00 +12°C° 0 mm 4 mps 743 mmHg 70%
    05:00 +12°C° 0 mm 4 mps 743 mmHg 65%
    06:00 +13°C° 0 mm 4 mps 743 mmHg 61%
    07:00 +14°C° 0 mm 4 mps 743 mmHg 56%
    08:00 +15°C° 0 mm 4 mps 743 mmHg 50%
    09:00 +18°C° 0 mm 4 mps 743 mmHg 44%
    10:00 +20°C° 0 mm 4 mps 744 mmHg 39%
    11:00 +21°C° 0 mm 4 mps 743 mmHg 35%
    12:00 +22°C° 0 mm 4 mps 743 mmHg 32%
    13:00 +24°C° 0 mm 3 mps 743 mmHg 28%
    14:00 +24°C° 0 mm 3 mps 743 mmHg 27%
    15:00 +24°C° 0 mm 3 mps 743 mmHg 27%
    16:00 +24°C° 0 mm 3 mps 743 mmHg 26%
    17:00 +21°C° 0 mm 3 mps 743 mmHg 29%
    18:00 +19°C° 0 mm 3 mps 744 mmHg 33%
    19:00 +16°C° 0 mm 3 mps 744 mmHg 36%
    20:00 +15°C° 0 mm 4 mps 744 mmHg 38%
    21:00 +14°C° 0 mm 4 mps 745 mmHg 39%
    22:00 +13°C° 0 mm 4 mps 745 mmHg 41%
    23:00 +13°C° 0 mm 4 mps 745 mmHg 42%

    21 September, Saturday

    Time Temperature Precipitation Wind Pressure Humidity
    00:00 +12°C° 0 mm 4 mps 745 mmHg 43%
    01:00 +12°C° 0 mm 3 mps 745 mmHg 44%
    02:00 +12°C° 0 mm 3 mps 745 mmHg 44%
    03:00 +11°C° 0 mm 3 mps 745 mmHg 45%
    04:00 +11°C° 0 mm 3 mps 745 mmHg 45%
    05:00 +12°C° 0 mm 3 mps 745 mmHg 43%
    06:00 +13°C° 0 mm 3 mps 745 mmHg 42%
    07:00 +14°C° 0 mm 3 mps 745 mmHg 40%
    08:00 +17°C° 0 mm 3 mps 745 mmHg 36%
    09:00 +20°C° 0 mm 2 mps 745 mmHg 31%
    10:00 +23°C° 0 mm 2 mps 745 mmHg 27%
    11:00 +25°C° 0 mm 2 mps 745 mmHg 27%
    12:00 +26°C° 0 mm 2 mps 745 mmHg 27%
    13:00 +27°C° 0 mm 1 mps 744 mmHg 27%
    14:00 +27°C° 0 mm 2 mps 744 mmHg 28%
    15:00 +27°C° 0 mm 2 mps 744 mmHg 29%
    16:00 +26°C° 0 mm 2 mps 744 mmHg 31%
    17:00 +24°C° 0 mm 2 mps 744 mmHg 37%
    18:00 +21°C° 0 mm 1 mps 744 mmHg 43%
    19:00 +19°C° 0 mm 1 mps 744 mmHg 49%
    20:00 +19°C° 0 mm 1 mps 744 mmHg 50%
    21:00 +19°C° 0 mm 1 mps 745 mmHg 51%
    22:00 +18°C° 0 mm 1 mps 745 mmHg 51%
    23:00 +18°C° 0 mm 1 mps 745 mmHg 55%

    22 September, Sunday

    Time Temperature Precipitation Wind Pressure Humidity
    00:00 +18°C° 0 mm 1 mps 744 mmHg 58%
    01:00 +16°C° 0 mm 1 mps 744 mmHg 61%
    02:00 +16°C° 0 mm 1 mps 744 mmHg 62%
    03:00 +16°C° 0 mm 1 mps 744 mmHg 63%
    04:00 +16°C° 0 mm 1 mps 743 mmHg 64%
    05:00 +18°C° 0 mm 1 mps 743 mmHg 60%
    06:00 +19°C° 0 mm 1 mps 744 mmHg 57%
    07:00 +18°C° 0 mm 0 mps 744 mmHg 54%
    08:00 +22°C° 0 mm 1 mps 744 mmHg 48%
    09:00 +24°C° 0 mm 1 mps 744 mmHg 43%
    10:00 +26°C° 0 mm 2 mps 744 mmHg 38%
    11:00 +27°C° 0 mm 2 mps 743 mmHg 36%
    12:00 +27°C° 0 mm 2 mps 743 mmHg 34%
    13:00 +28°C° 0 mm 2 mps 742 mmHg 31%
    14:00 +27°C° 0 mm 2 mps 742 mmHg 33%
    15:00 +27°C° 0 mm 2 mps 742 mmHg 34%
    16:00 +26°C° 0 mm 1 mps 741 mmHg 36%
    17:00 +24°C° 0 mm 1 mps 741 mmHg 40%
    18:00 +22°C° 0 mm 1 mps 741 mmHg 45%
    19:00 +19°C° 0 mm 0 mps 741 mmHg 49%
    20:00 +20°C° 0 mm 1 mps 741 mmHg 50%
    21:00 +20°C° 0 mm 1 mps 742 mmHg 50%
    22:00 +19°C° 0 mm 1 mps 742 mmHg 50%
    23:00 +19°C° 0 mm 1 mps 741 mmHg 49%

    23 September, Monday

    Time Temperature Precipitation Wind Pressure Humidity
    00:00 +19°C° 0 mm 1 mps 741 mmHg 47%
    01:00 +19°C° 0 mm 1 mps 741 mmHg 46%
    02:00 +19°C° 0 mm 1 mps 741 mmHg 45%
    03:00 +19°C° 0 mm 1 mps 741 mmHg 44%
    04:00 +19°C° 0 mm 1 mps 740 mmHg 44%
    05:00 +20°C° 0 mm 1 mps 740 mmHg 44%
    06:00 +21°C° 0 mm 1 mps 740 mmHg 44%
    07:00 +21°C° 0 mm 1 mps 740 mmHg 44%
    08:00 +21°C° 0.4 mm 1 mps 740 mmHg 54%
    09:00 +19°C° 0.4 mm 2 mps 740 mmHg 63%
    10:00 +18°C° 0.4 mm 2 mps 740 mmHg 73%
    11:00 +20°C° 0.2 mm 2 mps 739 mmHg 71%
    12:00 +21°C° 0.2 mm 2 mps 739 mmHg 69%
    13:00 +24°C° 0.2 mm 1 mps 738 mmHg 67%
    14:00 +23°C° 0.4 mm 1 mps 738 mmHg 69%
    15:00 +23°C° 0.4 mm 1 mps 737 mmHg 72%
    16:00 +23°C° 0.4 mm 1 mps 737 mmHg 74%
    17:00 +22°C° 0.9 mm 1 mps 736 mmHg 78%
    18:00 +20°C° 0.9 mm 2 mps 736 mmHg 82%
    19:00 +20°C° 0.9 mm 2 mps 736 mmHg 86%
    20:00 +20°C° 3 mm 2 mps 736 mmHg 89%
    21:00 +20°C° 3 mm 2 mps 736 mmHg 92%
    22:00 +20°C° 3 mm 2 mps 736 mmHg 95%
    23:00 +19°C° 1.3 mm 2 mps 736 mmHg 95%
    Show more